Simultaneous Nadir Overpasses (SNOs) Predictions

Prediction of SNOs between NOAA-19 and TERRA Satellite Orbit:

Table of predicted SNOs for the next 14.0 days since TLE Epoch: 6/4/2013
Index Date (NOAA-19) Time (NOAA-19) Lat,Lon (NOAA-19) SZA (NOAA-19 ) Date (TERRA) Time (TERRA) Lat,Lon (TERRA) SZA (TERRA ) Distance(km) Time Diff (sec)
1 06/05/2013 08:47:36 -70.46,-133.36 132.22 06/05/2013 08:48:43 -70.37,-130.94 132.31 91.01 67
2 06/05/2013 09:38:23 69.44, 35.44 46.75 06/05/2013 09:38:25 69.44, 35.41 46.75 1.09 2
3 06/05/2013 10:29:12 -68.97,-156.63 133.72 06/05/2013 10:28:00 -69.05,-157.46 133.65 34.36 72
4 06/07/2013 13:31:55 -70.41, 155.65 132.50 06/07/2013 13:33:02 -70.32, 157.92 132.58 85.11 67
5 06/07/2013 14:22:43 69.47, -35.67 46.56 06/07/2013 14:22:43 69.45, -35.66 46.53 2.20 0
6 06/07/2013 15:13:31 -68.92, 132.38 134.00 06/07/2013 15:12:19 -69.00, 131.40 133.92 40.19 72
7 06/09/2013 18:16:14 -70.35, 84.67 132.74 06/09/2013 18:17:22 -70.20, 86.67 132.89 77.11 68
8 06/09/2013 19:07:02 69.44,-106.71 46.35 06/09/2013 19:07:01 69.44,-106.75 46.34 1.89 1
9 06/09/2013 19:57:49 -68.81, 61.45 134.29 06/09/2013 19:56:39 -68.89, 60.17 134.22 51.95 70
10 06/11/2013 23:00:32 -70.25, 13.76 132.99 06/11/2013 23:01:41 -70.12, 15.49 133.13 66.70 69
11 06/11/2013 23:51:22 69.48,-177.83 46.23 06/11/2013 23:51:18 69.46,-177.78 46.21 2.58 4
12 06/12/2013 00:42:08 -68.76, -9.55 134.50 06/12/2013 00:40:58 -68.81, -11.00 134.46 58.57 70
13 06/14/2013 03:44:50 -70.16, -57.16 133.21 06/14/2013 03:46:00 -70.03, -55.72 133.34 56.16 70
14 06/14/2013 04:35:41 69.47, 111.13 46.09 06/14/2013 04:35:35 69.48, 111.16 46.10 1.82 6
15 06/14/2013 05:26:26 -68.66, -80.48 134.72 06/14/2013 05:25:17 -68.71, -82.19 134.67 69.24 69
16 06/16/2013 08:29:08 -70.06,-128.08 133.40 06/16/2013 08:30:19 -69.92,-126.94 133.54 45.81 71
17 06/16/2013 09:20:00 69.46, 40.07 45.99 06/16/2013 09:19:52 69.48, 40.09 46.01 1.99 8




NCC Satellite Simultaneous Nadir Overpasses (SNOs) Prediction Service
